#timestamp,LO_Frequency,Hit,StdDev 
1611658815.6,286047014.2,N
1611658835.4,286047021.6,Y
1611658855.3,286047022.0,P
1611658875.1,286047020.7,N
1611658895.9,286047022.4,N
1611658915.7,286047020.6,N
1611658935.5,286047021.1,N
1611658955.4,286047016.1,N
1611658975.2,286047014.1,N
1611658995.1,286047015.0,N
1611658996.0,286047015.0,N
1611659015.8,286047011.6,N
1611659035.6,286047010.2,N
1611659055.5,286047010.7,N
1611659075.3,286047009.7,N
1611659095.1,286047016.1,N
1611659115.9,286047015.9,N
1611659135.7,286047018.3,Y
1611659155.6,286047001.8,P
1611659175.4,286047002.7,N
1611659195.2,286046996.8,N
1611659215.1,286046995.7,N
1611659216.0,286046995.7,N
1611659235.8,286046991.7,N
1611659255.7,286046991.6,N
1611659275.5,286046992.5,N
1611659295.3,286046996.1,N
1611659315.2,286046990.3,N
1611659335.0,286046991.2,N
1611659335.9,286046991.2,N
1611659355.7,286046990.7,N
1611659375.6,286046988.5,N
1611659395.4,286046989.7,N
1611659415.3,286046987.0,N
1611659435.1,286046989.0,N
1611659455.8,286046991.2,N
1611659475.7,286046987.4,N
1611659495.5,286046986.7,N
1611659515.4,286046984.7,N
1611659535.2,286046985.1,N
1611659555.0,286046982.5,N
1611659555.9,286046982.5,N
1611659575.8,286046984.9,N
1611659595.6,286046984.8,N
1611659615.4,286046980.7,N
1611659635.3,286046979.7,N
1611659655.1,286046982.6,N
1611659675.9,286046981.3,N
1611659695.7,286046986.5,N
1611659715.5,286046989.4,N
1611659735.4,286046988.5,N
1611659755.2,286046989.8,N
1611659775.0,286046994.3,N
1611659775.9,286046994.3,N
1611659795.8,286046995.4,N
1611659815.6,286046998.9,N
1611659835.5,286047002.7,N
1611659855.3,286047001.5,N
1611659875.1,286047005.5,N
1611659895.9,286046999.9,N
1611659915.7,286047002.8,N
1611659935.6,286046998.1,N
1611659955.4,286046998.8,N
1611659975.2,286047002.4,N
1611659995.1,286046998.4,N
1611659996.0,286046998.4,N
1611660015.8,286046998.3,N
1611660035.6,286046997.9,N
1611660055.5,286046998.0,N
1611660075.3,286046998.7,N
1611660095.2,286046995.2,N
1611660115.9,286046999.1,N
1611660135.7,286047002.3,N
1611660155.6,286046999.8,N
1611660175.4,286047002.5,N
1611660195.3,286047003.6,N
1611660215.1,286047004.7,N
1611660216.0,286047004.7,N
1611660235.8,286047006.5,N
1611660255.7,286047006.8,N
1611660275.5,286047008.5,N
1611660295.3,286047010.7,N
1611660315.2,286047008.6,N
1611660335.0,286047009.0,N
1611660335.9,286047009.0,N
1611660355.8,286047003.9,N
1611660375.6,286047006.0,N
1611660395.4,286047008.6,N
1611660415.3,286047008.4,N
1611660435.1,286047008.8,N
1611660455.9,286047007.9,N
1611660475.7,286047007.0,N
1611660495.5,286047004.9,N
1611660515.4,286047007.4,N
1611660535.2,286047007.0,N
1611660555.1,286047004.1,N
1611660556.0,286047004.1,N
1611660575.8,286046996.6,N
1611660595.6,286046993.4,N
1611660615.5,286046997.8,N
1611660635.3,286046999.4,N
1611660655.1,286046999.6,N
1611660675.9,286046995.4,N
1611660695.7,286046995.1,N
1611660715.6,286046990.7,N
1611660735.4,286046989.1,N
1611660755.2,286046987.2,N
1611660775.1,286046988.1,N
1611660776.0,286046988.1,N
1611660795.8,286046988.2,N
1611660815.6,286046986.2,N
1611660835.5,286046988.4,N
1611660855.3,286046993.9,N
1611660875.2,286046995.0,N
1611660895.9,286047000.8,N
1611660915.7,286047002.3,N
1611660935.6,286047004.2,N
1611660955.4,286046999.7,N
1611660975.3,286047003.6,N
1611660995.1,286047004.4,N
1611660996.0,286047004.4,N
1611661015.8,286047002.8,N
1611661035.7,286047000.2,N
1611661055.5,286047002.0,N
1611661075.3,286047004.9,N
1611661095.2,286047007.3,N
1611661115.0,286047006.3,N
1611661115.9,286047006.3,N
1611661135.8,286047008.4,N
1611661155.6,286047008.6,N
1611661175.4,286047007.9,N
1611661195.3,286047008.8,N
1611661215.1,286047004.9,N
1611661235.9,286047001.6,N
1611661255.7,286046997.1,N
1611661275.5,286046995.1,N
1611661295.4,286046994.3,N
1611661315.2,286046993.0,N
1611661335.0,286046987.3,N
1611661335.9,286046987.3,N
1611661355.8,286046983.8,N
1611661375.6,286046985.1,N
1611661395.5,286046988.1,N
1611661415.3,286046992.0,N
1611661435.1,286046993.7,N
1611661455.9,286046998.0,N
1611661475.7,286046998.5,N
1611661495.5,286046999.3,N
1611661515.4,286046999.6,N
1611661535.2,286046998.3,N
1611661555.1,286047002.4,N
1611661556.0,286047002.4,N
1611661575.8,286047002.5,N
1611661595.6,286047000.6,N
1611661615.5,286047000.6,N
1611661635.3,286047004.3,N
1611661655.2,286047004.9,N
1611661675.9,286047004.1,N
1611661695.7,286047005.5,N
1611661715.6,286047007.4,N
1611661735.4,286047007.0,N
1611661755.2,286046999.8,N
1611661775.1,286047006.0,N
1611661776.0,286047006.0,N
1611661795.8,286047007.6,N
1611661815.7,286047003.0,N
1611661835.5,286047003.6,N
1611661855.3,286046999.8,N
1611661875.2,286047000.9,N
1611661895.0,286047004.4,N
1611661895.9,286047004.4,N
1611661915.8,286047004.0,N
1611661935.6,286046999.6,N
1611661955.4,286047001.1,N
1611661975.3,286047001.8,N
1611661995.1,286047001.7,N
1611662015.8,286047004.3,N
1611662035.7,286047004.0,N
1611662055.5,286047003.4,N
1611662075.4,286047007.5,Y
1611662095.2,286046999.7,P
1611662115.0,286047002.6,N
1611662115.9,286047002.6,N
1611662135.8,286047003.2,N
1611662155.6,286047011.9,Y
1611662175.5,286047001.6,P
1611662195.3,286047005.2,P
1611662215.1,286047005.5,P
1611662235.9,286047000.5,N
1611662255.7,286047002.6,N
1611662275.6,286047005.3,N
1611662295.4,286047005.2,N
1611662315.2,286047004.7,N
1611662335.1,286047005.8,Y
1611662336.0,286047005.8,P
1611662355.8,286047003.9,P
1611662375.7,286047005.4,P
1611662395.5,286047004.9,Y
